Princeton, MN

12:29 AM CDT on April 20, 2018 (GMT -0500)
Princeton Municipal

Weather History for KPNM - November, 2012

Change the Weather History Date:

Monday, November 12, 2012

  Actual Average Record
Temperature  
Mean Temperature 20 °F -  
Max Temperature 24 °F 40 °F 64 °F (2001)
Min Temperature 15 °F 24 °F 5 °F (1996)
Degree Days  
Heating Degree Days 46    
Moisture  
Dew Point 13 °F    
Average Humidity 74    
Maximum Humidity 93    
Minimum Humidity 59    
Precipitation  
Precipitation 0.00 in - - ()
Sea Level Pressure  
Sea Level Pressure 30.03 in    
Wind  
Wind Speed 10 mph (WSW)    
Max Wind Speed 18 mph    
Max Gust Speed 25 mph    
Visibility 9 miles    
Events Snow    
Averages and records for this station are not official NWS values.
T = Trace of Precipitation, MM = Missing Value Source: NWS Daily Summary

Daily Weather History Graph

Daily Weather History Graph

Search for Another Location

Airport or City:

Astronomy

Nov. 12, 2012 Rise Set
Actual Time 7:10 AM CST 4:46 PM CST
Civil Twilight 6:38 AM CST 5:18 PM CST
Nautical Twilight 6:02 AM CST 5:54 PM CST
Astronomical Twilight 5:27 AM CST 6:29 PM CST
Moon 5:33 AM CST (11/12) 3:53 PM CST (11/12)
Length of Visible Light 10h 40m
Length of Day
9h 36m
Waning Crescent, 2% of the Moon is Illuminated
Nov 12
Waning Crescent
Nov 13
New
Nov 20
First Quarter
Nov 28
Full
Dec 6
Last Quarter

Hourly Weather History & Observations

Time (CST) Temp. Windchill Dew Point Humidity Pressure Visibility Wind Dir Wind Speed Gust Speed Precip Events Conditions
12:11 AM 19.4 °F 7.2 °F 8.6 °F 63% 29.89 in 10.0 mi WSW 11.5 mph 18.4 mph N/A   Overcast
12:31 AM 19.4 °F 7.9 °F 8.6 °F 63% 29.89 in 10.0 mi WSW 10.4 mph 19.6 mph N/A   Overcast
12:51 AM 19.4 °F 9.5 °F 10.4 °F 68% 29.89 in 10.0 mi SW 8.1 mph - N/A Snow Light Snow
1:11 AM 17.6 °F 4.3 °F 10.4 °F 73% 29.89 in 10.0 mi WSW 12.7 mph - N/A   Overcast
1:31 AM 17.6 °F 9.3 °F 10.4 °F 73% 29.89 in 10.0 mi SW 5.8 mph - N/A   Overcast
1:51 AM 17.6 °F 8.2 °F 10.4 °F 73% 29.88 in 10.0 mi SSW 6.9 mph - N/A   Overcast
2:12 AM 17.6 °F 6.4 °F 10.4 °F 73% 29.89 in 10.0 mi SW 9.2 mph - N/A   Mostly Cloudy
2:31 AM 17.6 °F 9.3 °F 10.4 °F 73% 29.89 in 10.0 mi SW 5.8 mph - N/A   Scattered Clouds
2:51 AM 17.6 °F 10.7 °F 10.4 °F 73% 29.89 in 10.0 mi SSW 4.6 mph - N/A   Scattered Clouds
3:31 AM 15.8 °F 6.1 °F 10.4 °F 79% 29.88 in 10.0 mi SW 6.9 mph - N/A   Scattered Clouds
3:51 AM 17.6 °F 9.3 °F 10.4 °F 73% 29.88 in 10.0 mi SSW 5.8 mph - N/A Snow Light Snow
4:12 AM 15.8 °F 6.1 °F 10.4 °F 79% 29.88 in 10.0 mi SSW 6.9 mph - N/A   Scattered Clouds
4:31 AM 15.8 °F 7.2 °F 10.4 °F 79% 29.89 in 10.0 mi SSW 5.8 mph - N/A   Clear
4:51 AM 15.8 °F 6.1 °F 10.4 °F 79% 29.89 in 10.0 mi SSW 6.9 mph - N/A   Mostly Cloudy
5:12 AM 17.6 °F 8.2 °F 12.2 °F 79% 29.89 in 10.0 mi SSW 6.9 mph - N/A   Overcast
5:31 AM 17.6 °F 9.3 °F 12.2 °F 79% 29.90 in 7.0 mi SSW 5.8 mph - N/A   Overcast
5:51 AM 17.6 °F 7.3 °F 14.0 °F 86% 29.90 in 4.0 mi SSW 8.1 mph - N/A Snow Light Snow
6:12 AM 17.6 °F 9.3 °F 15.8 °F 93% 29.89 in 3.0 mi SSW 5.8 mph - N/A Snow Light Snow
6:31 AM 19.4 °F 12.8 °F 15.8 °F 86% 29.90 in 2.0 mi SW 4.6 mph - N/A Snow Light Snow
6:51 AM 19.4 °F 12.8 °F 15.8 °F 86% 29.90 in 2.0 mi SW 4.6 mph - N/A Snow Light Snow
7:12 AM 19.4 °F 11.5 °F 15.8 °F 86% 29.90 in 10.0 mi WSW 5.8 mph - N/A Snow Light Snow
7:31 AM 19.4 °F 10.4 °F 15.8 °F 86% 29.91 in 10.0 mi WSW 6.9 mph - N/A   Overcast
7:51 AM 19.4 °F 9.5 °F 14.0 °F 80% 29.92 in 10.0 mi WSW 8.1 mph - N/A   Overcast
8:12 AM 19.4 °F 8.6 °F 14.0 °F 80% 29.92 in 10.0 mi WSW 9.2 mph - N/A Snow Light Snow
8:31 AM 19.4 °F 9.5 °F 14.0 °F 80% 29.93 in 10.0 mi WSW 8.1 mph - N/A Snow Light Snow
8:51 AM 19.4 °F 8.6 °F 14.0 °F 80% 29.94 in 10.0 mi WSW 9.2 mph - N/A   Overcast
9:11 AM 19.4 °F 6.0 °F 12.2 °F 74% 29.94 in 10.0 mi WSW 13.8 mph - N/A   Overcast
9:31 AM 21.2 °F 9.5 °F 12.2 °F 68% 29.95 in 10.0 mi WSW 11.5 mph 18.4 mph N/A   Overcast
9:51 AM 21.2 °F 8.9 °F 14.0 °F 74% 29.96 in 7.0 mi WSW 12.7 mph 19.6 mph N/A Snow Light Snow
10:11 AM 21.2 °F 8.9 °F 15.8 °F 80% 29.96 in 4.0 mi WSW 12.7 mph 17.3 mph N/A Snow Light Snow
10:52 AM 21.2 °F 7.8 °F 12.2 °F 68% 29.98 in 10.0 mi West 15.0 mph 21.9 mph N/A   Overcast
11:11 AM 21.2 °F 6.8 °F 12.2 °F 68% 29.98 in 10.0 mi WSW 17.3 mph 20.7 mph N/A Snow Light Snow
11:31 AM 23.0 °F 9.2 °F 12.2 °F 63% 29.98 in 10.0 mi West 17.3 mph 21.9 mph N/A   Mostly Cloudy
11:51 AM 24.8 °F 11.9 °F 12.2 °F 59% 29.98 in 10.0 mi West 16.1 mph 23.0 mph N/A   Mostly Cloudy
12:11 PM 24.8 °F 11.5 °F 14.0 °F 64% 29.99 in 10.0 mi WSW 17.3 mph 20.7 mph N/A   Overcast
12:32 PM 23.0 °F 11.1 °F 12.2 °F 63% 29.99 in 10.0 mi West 12.7 mph 21.9 mph N/A   Overcast
12:51 PM 23.0 °F 10.1 °F 12.2 °F 63% 30.00 in 10.0 mi West 15.0 mph - N/A   Mostly Cloudy
1:11 PM 24.8 °F 12.4 °F 12.2 °F 59% 30.01 in 10.0 mi West 15.0 mph 25.3 mph N/A   Overcast
1:32 PM 24.8 °F 11.1 °F 12.2 °F 59% 30.01 in 10.0 mi WSW 18.4 mph 25.3 mph N/A   Overcast
1:51 PM 24.8 °F 11.5 °F 12.2 °F 59% 30.02 in 10.0 mi WSW 17.3 mph 25.3 mph N/A   Overcast
2:11 PM 24.8 °F 11.1 °F 14.0 °F 64% 30.02 in 10.0 mi WSW 18.4 mph 25.3 mph N/A   Overcast
2:32 PM 24.8 °F 11.5 °F 14.0 °F 64% 30.03 in 10.0 mi WSW 17.3 mph 23.0 mph N/A   Mostly Cloudy
2:51 PM 24.8 °F 14.0 °F 14.0 °F 64% 30.04 in 10.0 mi West 11.5 mph 21.9 mph N/A   Overcast
3:11 PM 24.8 °F 11.9 °F 14.0 °F 64% 30.05 in 10.0 mi West 16.1 mph 21.9 mph N/A   Overcast
3:31 PM 24.8 °F 12.9 °F 15.8 °F 69% 30.07 in 10.0 mi West 13.8 mph 21.9 mph N/A   Overcast
3:51 PM 24.8 °F 12.4 °F 15.8 °F 69% 30.08 in 10.0 mi West 15.0 mph - N/A   Overcast
4:11 PM 23.0 °F 10.6 °F 15.8 °F 74% 30.09 in 10.0 mi West 13.8 mph 19.6 mph N/A   Overcast
4:31 PM 23.0 °F 10.6 °F 14.0 °F 68% 30.10 in 10.0 mi West 13.8 mph 19.6 mph N/A   Overcast
4:51 PM 21.2 °F 10.1 °F 14.0 °F 74% 30.11 in 10.0 mi West 10.4 mph 17.3 mph N/A   Mostly Cloudy
5:11 PM 21.2 °F 11.7 °F 14.0 °F 74% 30.12 in 10.0 mi WSW 8.1 mph - N/A   Scattered Clouds
5:31 PM 21.2 °F 10.1 °F 14.0 °F 74% 30.13 in 10.0 mi WSW 10.4 mph 16.1 mph N/A   Overcast
5:51 PM 21.2 °F 8.9 °F 14.0 °F 74% 30.14 in 10.0 mi West 12.7 mph 17.3 mph N/A   Overcast
6:11 PM 21.2 °F 12.6 °F 15.8 °F 80% 30.15 in 10.0 mi West 6.9 mph 16.1 mph N/A   Overcast
6:31 PM 21.2 °F 10.9 °F 15.8 °F 80% 30.15 in 10.0 mi West 9.2 mph - N/A   Overcast
6:51 PM 21.2 °F 11.7 °F 15.8 °F 80% 30.16 in 10.0 mi West 8.1 mph - N/A   Overcast
7:11 PM 21.2 °F 10.1 °F 15.8 °F 80% 30.17 in 10.0 mi West 10.4 mph - N/A   Overcast
7:31 PM 21.2 °F 10.9 °F 15.8 °F 80% 30.18 in 10.0 mi West 9.2 mph - N/A   Overcast
7:51 PM 21.2 °F 10.1 °F 15.8 °F 80% 30.19 in 10.0 mi West 10.4 mph - N/A   Overcast
8:11 PM 21.2 °F 9.5 °F 15.8 °F 80% 30.19 in 10.0 mi West 11.5 mph - N/A   Overcast
8:32 PM 21.2 °F 10.9 °F 15.8 °F 80% 30.21 in 10.0 mi West 9.2 mph - N/A   Overcast
8:51 PM 21.2 °F 10.1 °F 15.8 °F 80% 30.21 in 10.0 mi WNW 10.4 mph - N/A   Overcast
9:11 PM 21.2 °F 10.9 °F 15.8 °F 80% 30.22 in 10.0 mi WNW 9.2 mph - N/A   Overcast
9:32 PM 21.2 °F 11.7 °F 15.8 °F 80% 30.23 in 10.0 mi WNW 8.1 mph - N/A   Overcast
9:51 PM 21.2 °F 12.6 °F 14.0 °F 74% 30.23 in 10.0 mi WNW 6.9 mph - N/A   Overcast
10:11 PM 21.2 °F 13.6 °F 14.0 °F 74% 30.24 in 10.0 mi West 5.8 mph - N/A   Overcast
10:32 PM 21.2 °F 12.6 °F 15.8 °F 80% 30.24 in 10.0 mi WNW 6.9 mph - N/A   Overcast
10:51 PM 19.4 °F 9.5 °F 14.0 °F 80% 30.24 in 10.0 mi West 8.1 mph - N/A   Overcast
11:11 PM 19.4 °F 12.8 °F 14.0 °F 80% 30.24 in 10.0 mi West 4.6 mph - N/A   Scattered Clouds
11:32 PM 17.6 °F - 14.0 °F 86% 30.25 in 10.0 mi Calm Calm - N/A   Clear
11:51 PM 17.6 °F - 12.2 °F 79% 30.25 in 10.0 mi Calm Calm - N/A   Clear